| time (UTC) | temp F | wind direction | speed MPH | gust MPH | rain 1hr in | rain 24hr in | rain mn in | humidity % | barometer mb |
| 20260831013520 | 76 | 36 | 2.0 | 5.0 | 0.00 | 0.00 | 0.00 | 45 | 1015.3 |
| 20260831013019 | 76 | 78 | 1.0 | 5.0 | 0.00 | 0.00 | 0.00 | 45 | 1015.3 |
| 20260831012523 | 76 | 19 | 2.0 | 5.0 | 0.00 | 0.00 | 0.00 | 44 | 1015.4 |
| 20260831012518 | 76 | 19 | 1.0 | 5.0 | 0.00 | 0.00 | 0.00 | 44 | 1015.4 |
| 20260831011519 | 77 | 36 | 1.0 | 5.0 | 0.00 | 0.00 | 0.00 | 44 | 1015.4 |
| 20260831011019 | 77 | 69 | 2.0 | 5.0 | 0.00 | 0.00 | 0.00 | 44 | 1015.4 |
| 20260831010519 | 76 | 22 | 1.0 | 5.0 | 0.00 | 0.00 | 0.00 | 43 | 1015.4 |
| 20260831010021 | 77 | 22 | 1.0 | 5.0 | 0.00 | 0.00 | 0.00 | 43 | 1015.6 |
| 20260831005519 | 77 | 0 | 1.0 | 5.0 | 0.00 | 0.00 | 0.00 | 42 | 1015.6 |
| 20260831005018 | 77 | 9 | 2.0 | 9.0 | 0.00 | 0.00 | 0.00 | 43 | 1015.6 |
| 20260831004519 | 77 | 19 | 2.0 | 9.0 | 0.00 | 0.00 | 0.00 | 43 | 1015.7 |
| 20260831004018 | 77 | 180 | 1.0 | 3.0 | 0.00 | 0.00 | 0.00 | 42 | 1015.7 |
| 20260831003518 | 77 | 177 | 1.0 | 7.0 | 0.00 | 0.00 | 0.00 | 41 | 1015.9 |
| 20260831003019 | 77 | 25 | 2.0 | 7.0 | 0.00 | 0.00 | 0.00 | 42 | 1015.9 |
| 20260831002519 | 77 | 17 | 2.0 | 4.0 | 0.00 | 0.00 | 0.00 | 42 | 1015.9 |
| 20260831002024 | 77 | 265 | 2.0 | 8.0 | 0.00 | 0.00 | 0.00 | 42 | 1016.0 |
| 20260831002019 | 77 | 36 | 2.0 | 4.0 | 0.00 | 0.00 | 0.00 | 43 | 1016.0 |
| 20260831001024 | 77 | 265 | 1.0 | 3.0 | 0.00 | 0.00 | 0.00 | 41 | 1016.0 |
| 20260831001020 | 77 | 355 | 1.0 | 8.0 | 0.00 | 0.00 | 0.00 | 42 | 1016.0 |
| 20260831000023 | 77 | 315 | 1.0 | 4.0 | 0.00 | 0.00 | 0.00 | 41 | 1016.1 |
| 20260831000019 | 77 | 289 | 1.0 | 4.0 | 0.00 | 0.00 | 0.00 | 42 | 1016.1 |
| 20260830235018 | 78 | 0 | 1.0 | 3.0 | 0.00 | 0.00 | 0.00 | 41 | 1016.1 |
| 20260830234524 | 77 | 269 | 1.0 | 3.0 | 0.00 | 0.00 | 0.00 | 41 | 1016.3 |
| 20260830234519 | 78 | 114 | 1.0 | 3.0 | 0.00 | 0.00 | 0.00 | 41 | 1016.2 |
| 20260830233518 | 77 | 21 | 1.0 | 3.0 | 0.00 | 0.00 | 0.00 | 43 | 1016.4 |
| 20260830233019 | 76 | 17 | 1.0 | 8.0 | 0.00 | 0.00 | 0.00 | 43 | 1016.6 |
| 20260830232520 | 76 | 33 | 1.0 | 8.0 | 0.00 | 0.00 | 0.00 | 43 | 1016.6 |
| 20260830232018 | 76 | 38 | 3.0 | 9.0 | 0.00 | 0.00 | 0.00 | 42 | 1016.7 |
| 20260830231514 | 76 | 20 | 2.0 | 9.0 | 0.00 | 0.00 | 0.00 | 42 | 1016.8 |
| 20260830231019 | 75 | 169 | 2.0 | 6.0 | 0.00 | 0.00 | 0.00 | 43 | 1016.9 |
| 20260830231014 | 76 | 30 | 1.0 | 6.0 | 0.00 | 0.00 | 0.00 | 43 | 1016.8 |
| 20260830230513 | 75 | 163 | 2.0 | 5.0 | 0.00 | 0.00 | 0.00 | 44 | 1016.9 |
| 20260830230126 | 76 | 65 | 2.0 | 6.0 | 0.00 | 0.00 | 0.00 | 42 | 1017.0 |
| 20260830225012 | 76 | 91 | 2.0 | 5.0 | 0.00 | 0.00 | 0.00 | 43 | 1017.1 |
| 20260830224510 | 76 | 40 | 2.0 | 5.0 | 0.00 | 0.00 | 0.00 | 43 | 1017.1 |
| 20260830224010 | 76 | 13 | 2.0 | 5.0 | 0.00 | 0.00 | 0.00 | 43 | 1017.2 |
| 20260830223510 | 75 | 0 | 2.0 | 6.0 | 0.00 | 0.00 | 0.00 | 43 | 1017.3 |
| 20260830223011 | 76 | 106 | 1.0 | 6.0 | 0.00 | 0.00 | 0.00 | 45 | 1017.5 |
| 20260830222508 | 75 | 215 | 2.0 | 7.0 | 0.00 | 0.00 | 0.00 | 44 | 1017.6 |
| 20260830222007 | 75 | 82 | 2.0 | 7.0 | 0.00 | 0.00 | 0.00 | 44 | 1017.7 |
| 20260830221506 | 75 | 327 | 1.0 | 4.0 | 0.00 | 0.00 | 0.00 | 44 | 1017.8 |
| 20260830221012 | 75 | 308 | 3.0 | 10.0 | 0.00 | 0.00 | 0.00 | 44 | 1017.9 |
| 20260830221007 | 75 | 257 | 1.0 | 5.0 | 0.00 | 0.00 | 0.00 | 43 | 1017.8 |
| 20260830220006 | 74 | 11 | 3.0 | 10.0 | 0.00 | 0.00 | 0.00 | 45 | 1018.0 |
| 20260830215506 | 73 | 0 | 1.0 | 8.0 | 0.00 | 0.00 | 0.00 | 45 | 1018.1 |
| 20260830215006 | 73 | 288 | 1.0 | 5.0 | 0.00 | 0.00 | 0.00 | 45 | 1018.1 |
| 20260830214506 | 73 | 331 | 2.0 | 8.0 | 0.00 | 0.00 | 0.00 | 46 | 1018.2 |
| 20260830214010 | 74 | 180 | 2.0 | 9.0 | 0.00 | 0.00 | 0.00 | 44 | 1018.4 |
| 20260830214005 | 74 | 260 | 2.0 | 9.0 | 0.00 | 0.00 | 0.00 | 44 | 1018.3 |
| 20260830213504 | 74 | 111 | 1.0 | 9.0 | 0.00 | 0.00 | 0.00 | 46 | 1018.4 |
| 20260830212504 | 73 | 49 | 2.0 | 9.0 | 0.00 | 0.00 | 0.00 | 46 | 1018.5 |
| 20260830212004 | 73 | 24 | 3.0 | 8.0 | 0.00 | 0.00 | 0.00 | 47 | 1018.6 |
| 20260830211504 | 73 | 308 | 3.0 | 7.0 | 0.00 | 0.00 | 0.00 | 45 | 1018.6 |
| 20260830211004 | 73 | 178 | 3.0 | 7.0 | 0.00 | 0.00 | 0.00 | 46 | 1018.7 |
| 20260830210505 | 72 | 161 | 2.0 | 6.0 | 0.00 | 0.00 | 0.00 | 46 | 1018.6 |
| 20260830210010 | 72 | 167 | 2.0 | 5.0 | 0.00 | 0.00 | 0.00 | 46 | 1018.7 |
| 20260830205504 | 71 | 92 | 2.0 | 5.0 | 0.00 | 0.00 | 0.00 | 47 | 1018.7 |
| 20260830205002 | 71 | 39 | 2.0 | 5.0 | 0.00 | 0.00 | 0.00 | 46 | 1018.9 |
| 20260830204502 | 72 | 12 | 3.0 | 7.0 | 0.00 | 0.00 | 0.00 | 47 | 1019.0 |
| 20260830204002 | 72 | 145 | 3.0 | 7.0 | 0.00 | 0.00 | 0.00 | 46 | 1019.0 |
| 20260830203501 | 71 | 157 | 3.0 | 6.0 | 0.00 | 0.00 | 0.00 | 48 | 1019.1 |
| 20260830203002 | 71 | 190 | 2.0 | 5.0 | 0.00 | 0.00 | 0.00 | 47 | 1019.1 |
| 20260830202502 | 71 | 138 | 3.0 | 7.0 | 0.00 | 0.00 | 0.00 | 47 | 1019.1 |
| 20260830202002 | 71 | 26 | 3.0 | 8.0 | 0.00 | 0.00 | 0.00 | 48 | 1019.2 |
| 20260830201502 | 71 | 22 | 2.0 | 8.0 | 0.00 | 0.00 | 0.00 | 49 | 1019.3 |
| 20260830201002 | 70 | 300 | 2.0 | 5.0 | 0.00 | 0.00 | 0.00 | 50 | 1019.4 |
| 20260830200504 | 70 | 276 | 2.0 | 5.0 | 0.00 | 0.00 | 0.00 | 50 | 1019.4 |
| 20260830200000 | 70 | 281 | 2.0 | 5.0 | 0.00 | 0.00 | 0.00 | 49 | 1019.5 |
| 20260830195500 | 69 | 355 | 2.0 | 5.0 | 0.00 | 0.00 | 0.00 | 51 | 1019.6 |
| 20260830195000 | 69 | 331 | 2.0 | 7.0 | 0.00 | 0.00 | 0.00 | 50 | 1019.6 |
| 20260830194500 | 69 | 55 | 1.0 | 7.0 | 0.00 | 0.00 | 0.00 | 53 | 1019.7 |
| 20260830193959 | 68 | 34 | 1.0 | 6.0 | 0.00 | 0.00 | 0.00 | 52 | 1019.8 |
| 20260830193501 | 68 | 274 | 2.0 | 6.0 | 0.00 | 0.00 | 0.00 | 53 | 1019.8 |
| 20260830193000 | 69 | 269 | 2.0 | 6.0 | 0.00 | 0.00 | 0.00 | 50 | 1019.9 |
| 20260830192500 | 70 | 201 | 1.0 | 6.0 | 0.00 | 0.00 | 0.00 | 48 | 1019.9 |
| 20260830192000 | 69 | 175 | 1.0 | 4.0 | 0.00 | 0.00 | 0.00 | 52 | 1019.9 |
| 20260830191501 | 69 | 87 | 2.0 | 4.0 | 0.00 | 0.00 | 0.00 | 51 | 1020.0 |
| 20260830190958 | 69 | 219 | 2.0 | 4.0 | 0.00 | 0.00 | 0.00 | 51 | 1020.1 |
| 20260830190459 | 69 | 210 | 1.0 | 4.0 | 0.00 | 0.00 | 0.00 | 53 | 1020.1 |
| 20260830190000 | 68 | 319 | 1.0 | 5.0 | 0.00 | 0.00 | 0.00 | 52 | 1020.2 |
| 20260830185458 | 68 | 349 | 3.0 | 10.0 | 0.00 | 0.00 | 0.00 | 54 | 1020.3 |
| 20260830184956 | 67 | 76 | 3.0 | 10.0 | 0.00 | 0.00 | 0.00 | 55 | 1020.3 |
| 20260830184503 | 67 | 307 | 2.0 | 4.0 | 0.00 | 0.00 | 0.00 | 54 | 1020.4 |
| 20260830184456 | 67 | 332 | 2.0 | 9.0 | 0.00 | 0.00 | 0.00 | 55 | 1020.3 |
| 20260830183956 | 67 | 5 | 2.0 | 9.0 | 0.00 | 0.00 | 0.00 | 55 | 1020.4 |
| 20260830183000 | 67 | 182 | 2.0 | 9.0 | 0.00 | 0.00 | 0.00 | 56 | 1020.4 |
| 20260830182956 | 67 | 302 | 2.0 | 4.0 | 0.00 | 0.00 | 0.00 | 54 | 1020.5 |
| 20260830181956 | 66 | 195 | 2.0 | 9.0 | 0.00 | 0.00 | 0.00 | 57 | 1020.5 |
| 20260830181455 | 66 | 44 | 1.0 | 5.0 | 0.00 | 0.00 | 0.00 | 58 | 1020.4 |
| 20260830180956 | 66 | 81 | 2.0 | 5.0 | 0.00 | 0.00 | 0.00 | 57 | 1020.5 |
| 20260830180502 | 66 | 67 | 1.0 | 4.0 | 0.00 | 0.00 | 0.00 | 59 | 1020.6 |
| 20260830180456 | 66 | 338 | 2.0 | 8.0 | 0.00 | 0.00 | 0.00 | 58 | 1020.5 |
| 20260830175954 | 66 | 170 | 2.0 | 8.0 | 0.00 | 0.00 | 0.00 | 58 | 1020.5 |
| 20260830174953 | 66 | 106 | 1.0 | 4.0 | 0.00 | 0.00 | 0.00 | 60 | 1020.6 |
| 20260830174455 | 65 | 22 | 1.0 | 4.0 | 0.00 | 0.00 | 0.00 | 60 | 1020.6 |
| 20260830173958 | 65 | 178 | 1.0 | 3.0 | 0.00 | 0.00 | 0.00 | 61 | 1020.6 |
| 20260830173954 | 65 | 323 | 1.0 | 4.0 | 0.00 | 0.00 | 0.00 | 60 | 1020.5 |
| 20260830172952 | 64 | 15 | 1.0 | 3.0 | 0.00 | 0.00 | 0.00 | 62 | 1020.6 |
| 20260830172459 | 64 | 46 | 1.0 | 3.0 | 0.00 | 0.00 | 0.00 | 66 | 1020.6 |
| 20260830172454 | 64 | 107 | 1.0 | 4.0 | 0.00 | 0.00 | 0.00 | 61 | 1020.5 |
| 20260830171953 | 65 | 347 | 1.0 | 4.0 | 0.00 | 0.00 | 0.00 | 62 | 1020.6 |
| 20260830170953 | 63 | 43 | 1.0 | 3.0 | 0.00 | 0.00 | 0.00 | 66 | 1020.7 |
| 20260830170459 | 62 | 96 | 0.0 | 0.0 | 0.00 | 0.00 | 0.00 | 70 | 1020.6 |
| 20260830170451 | 63 | 341 | 0.0 | 3.0 | 0.00 | 0.00 | 0.00 | 69 | 1020.7 |
| 20260830165952 | 62 | 12 | 0.0 | 0.0 | 0.00 | 0.00 | 0.00 | 69 | 1020.7 |
| 20260830164951 | 61 | 235 | 0.0 | 0.0 | 0.00 | 0.00 | 0.00 | 71 | 1020.7 |
| 20260830164451 | 60 | 234 | 0.0 | 0.0 | 0.00 | 0.00 | 0.00 | 71 | 1020.7 |
| 20260830163949 | 60 | 268 | 0.0 | 0.0 | 0.00 | 0.00 | 0.00 | 77 | 1020.7 |
| 20260830163450 | 59 | 268 | 0.0 | 0.0 | 0.00 | 0.00 | 0.00 | 76 | 1020.7 |
| 20260830162949 | 58 | 268 | 0.0 | 0.0 | 0.00 | 0.00 | 0.00 | 78 | 1020.8 |
| 20260830162451 | 57 | 268 | 0.0 | 0.0 | 0.00 | 0.00 | 0.00 | 80 | 1020.8 |
| 20260830161949 | 57 | 268 | 0.0 | 0.0 | 0.00 | 0.00 | 0.00 | 83 | 1020.9 |
| 20260830161453 | 55 | 234 | 0.0 | 0.0 | 0.00 | 0.00 | 0.00 | 87 | 1021.0 |
| 20260830161449 | 56 | 234 | 0.0 | 0.0 | 0.00 | 0.00 | 0.00 | 83 | 1021.0 |
| 20260830160454 | 53 | 242 | 0.0 | 0.0 | 0.00 | 0.00 | 0.00 | 88 | 1021.0 |
| 20260830160450 | 54 | 241 | 0.0 | 0.0 | 0.00 | 0.00 | 0.00 | 88 | 1021.0 |
| 20260830155450 | 53 | 259 | 0.0 | 0.0 | 0.00 | 0.00 | 0.00 | 90 | 1021.1 |
| 20260830154949 | 52 | 240 | 0.0 | 0.0 | 0.00 | 0.00 | 0.00 | 91 | 1021.1 |
| 20260830154451 | 51 | 226 | 0.0 | 0.0 | 0.00 | 0.00 | 0.00 | 92 | 1021.0 |
| 20260830153949 | 51 | 225 | 0.0 | 0.0 | 0.00 | 0.00 | 0.00 | 92 | 1020.8 |
| 20260830153450 | 50 | 225 | 0.0 | 0.0 | 0.00 | 0.00 | 0.00 | 92 | 1020.9 |
| 20260830152949 | 50 | 225 | 0.0 | 0.0 | 0.00 | 0.00 | 0.00 | 92 | 1020.9 |
| 20260830152451 | 50 | 225 | 0.0 | 0.0 | 0.00 | 0.00 | 0.00 | 92 | 1021.0 |
| 20260830151949 | 50 | 225 | 0.0 | 0.0 | 0.00 | 0.00 | 0.00 | 93 | 1021.0 |
| 20260830151450 | 49 | 225 | 0.0 | 0.0 | 0.00 | 0.00 | 0.00 | 93 | 1021.1 |
| 20260830150951 | 49 | 221 | 0.0 | 0.0 | 0.00 | 0.00 | 0.00 | 94 | 1021.2 |
| 20260830150455 | 48 | 219 | 0.0 | 0.0 | 0.00 | 0.00 | 0.00 | 95 | 1021.0 |
| 20260830150451 | 49 | 219 | 0.0 | 0.0 | 0.00 | 0.00 | 0.00 | 95 | 1021.1 |
| 20260830145450 | 47 | 217 | 0.0 | 0.0 | 0.00 | 0.00 | 0.00 | 94 | 1021.1 |
| 20260830144953 | 47 | 217 | 0.0 | 0.0 | 0.00 | 0.00 | 0.00 | 94 | 1021.0 |
| 20260830144948 | 47 | 217 | 0.0 | 0.0 | 0.00 | 0.00 | 0.00 | 94 | 1021.0 |
| 20260830143948 | 47 | 217 | 0.0 | 0.0 | 0.00 | 0.00 | 0.00 | 94 | 1021.1 |
| 20260830143445 | 46 | 217 | 0.0 | 0.0 | 0.00 | 0.00 | 0.00 | 94 | 1021.0 |
| 20260830142943 | 46 | 217 | 0.0 | 0.0 | 0.00 | 0.00 | 0.00 | 93 | 1021.0 |
| 20260830142443 | 46 | 217 | 0.0 | 0.0 | 0.00 | 0.00 | 0.00 | 93 | 1021.0 |
| 20260830141945 | 46 | 217 | 0.0 | 0.0 | 0.00 | 0.00 | 0.00 | 93 | 1021.0 |
| 20260830141449 | 46 | 217 | 0.0 | 0.0 | 0.00 | 0.01 | 0.00 | 93 | 1021.0 |
| 20260830141445 | 46 | 217 | 0.0 | 0.0 | 0.00 | 0.00 | 0.00 | 93 | 1021.0 |
| 20260830140940 | 46 | 217 | 0.0 | 0.0 | 0.00 | 0.01 | 0.00 | 92 | 1021.0 |
| 20260830135940 | 46 | 217 | 0.0 | 0.0 | 0.00 | 0.01 | 0.00 | 92 | 1021.0 |
| 20260830135440 | 46 | 217 | 0.0 | 0.0 | 0.00 | 0.01 | 0.00 | 93 | 1021.0 |
| 20260830134943 | 46 | 217 | 0.0 | 0.0 | 0.00 | 0.01 | 0.00 | 93 | 1021.0 |
| 20260830134939 | 46 | 217 | 0.0 | 0.0 | 0.00 | 0.01 | 0.00 | 93 | 1021.1 |
| 20260830133939 | 46 | 217 | 0.0 | 0.0 | 0.00 | 0.01 | 0.00 | 93 | 1021.0 |
| 20260830133443 | 46 | 217 | 0.0 | 0.0 | 0.00 | 0.01 | 0.00 | 92 | 1020.9 |
| 20260830133437 | 46 | 217 | 0.0 | 0.0 | 0.00 | 0.01 | 0.00 | 93 | 1020.9 |
| 20260830132435 | 46 | 217 | 0.0 | 0.0 | 0.00 | 0.01 | 0.00 | 92 | 1020.8 |
| 20260830131936 | 46 | 217 | 0.0 | 0.0 | 0.00 | 0.01 | 0.00 | 92 | 1020.9 |
| 20260830131437 | 46 | 217 | 0.0 | 0.0 | 0.00 | 0.01 | 0.00 | 93 | 1020.9 |
| 20260830130935 | 46 | 217 | 0.0 | 0.0 | 0.00 | 0.01 | 0.00 | 93 | 1020.8 |
| 20260830130436 | 46 | 217 | 0.0 | 0.0 | 0.00 | 0.01 | 0.00 | 93 | 1020.8 |
| 20260830125935 | 46 | 217 | 0.0 | 0.0 | 0.00 | 0.01 | 0.00 | 93 | 1020.8 |
| 20260830125435 | 46 | 217 | 0.0 | 0.0 | 0.00 | 0.01 | 0.00 | 93 | 1020.8 |
| 20260830124935 | 46 | 217 | 0.0 | 0.0 | 0.00 | 0.01 | 0.00 | 93 | 1020.8 |
| 20260830124435 | 46 | 217 | 0.0 | 0.0 | 0.00 | 0.01 | 0.00 | 93 | 1020.7 |
| 20260830123933 | 46 | 218 | 0.0 | 0.0 | 0.00 | 0.01 | 0.00 | 93 | 1020.7 |
| 20260830123433 | 46 | 218 | 0.0 | 0.0 | 0.00 | 0.01 | 0.00 | 93 | 1020.6 |
| 20260830122934 | 46 | 218 | 0.0 | 0.0 | 0.00 | 0.01 | 0.00 | 92 | 1020.7 |
| 20260830122434 | 46 | 218 | 0.0 | 0.0 | 0.00 | 0.01 | 0.00 | 93 | 1020.6 |
| 20260830121934 | 46 | 226 | 0.0 | 0.0 | 0.00 | 0.01 | 0.00 | 92 | 1020.8 |
| 20260830121434 | 46 | 228 | 0.0 | 0.0 | 0.00 | 0.01 | 0.00 | 92 | 1020.8 |
| 20260830120933 | 46 | 228 | 0.0 | 0.0 | 0.00 | 0.01 | 0.00 | 92 | 1020.7 |
| 20260830120434 | 46 | 228 | 0.0 | 0.0 | 0.00 | 0.02 | 0.00 | 92 | 1020.7 |
| 20260830115933 | 46 | 228 | 0.0 | 0.0 | 0.00 | 0.05 | 0.00 | 92 | 1020.6 |
| 20260830115431 | 46 | 228 | 0.0 | 0.0 | 0.00 | 0.06 | 0.00 | 92 | 1020.7 |
| 20260830114931 | 46 | 228 | 0.0 | 0.0 | 0.00 | 0.06 | 0.00 | 91 | 1020.6 |
| 20260830114436 | 46 | 228 | 0.0 | 0.0 | 0.00 | 0.06 | 0.00 | 90 | 1020.6 |
| 20260830114432 | 46 | 228 | 0.0 | 0.0 | 0.00 | 0.06 | 0.00 | 90 | 1020.6 |
| 20260830113431 | 47 | 228 | 0.0 | 0.0 | 0.00 | 0.06 | 0.00 | 90 | 1020.5 |
| 20260830112936 | 47 | 228 | 0.0 | 0.0 | 0.00 | 0.06 | 0.00 | 91 | 1020.6 |
| 20260830112931 | 47 | 228 | 0.0 | 0.0 | 0.00 | 0.06 | 0.00 | 90 | 1020.6 |
| 20260830111932 | 48 | 228 | 0.0 | 0.0 | 0.00 | 0.06 | 0.00 | 92 | 1020.5 |
| 20260830111432 | 48 | 228 | 0.0 | 0.0 | 0.00 | 0.06 | 0.00 | 92 | 1020.5 |
| 20260830110929 | 47 | 228 | 0.0 | 0.0 | 0.00 | 0.06 | 0.00 | 91 | 1020.5 |
| 20260830110430 | 47 | 228 | 0.0 | 0.0 | 0.00 | 0.06 | 0.00 | 91 | 1020.5 |
| 20260830105930 | 48 | 228 | 0.0 | 0.0 | 0.00 | 0.06 | 0.00 | 91 | 1020.6 |
| 20260830105429 | 48 | 228 | 0.0 | 0.0 | 0.00 | 0.06 | 0.00 | 91 | 1020.6 |
| 20260830104928 | 48 | 229 | 0.0 | 0.0 | 0.00 | 0.06 | 0.00 | 92 | 1020.6 |
| 20260830104435 | 48 | 229 | 0.0 | 0.0 | 0.00 | 0.06 | 0.00 | 91 | 1020.7 |
| 20260830104429 | 48 | 229 | 0.0 | 0.0 | 0.00 | 0.06 | 0.00 | 91 | 1020.6 |
| 20260830103929 | 48 | 229 | 0.0 | 0.0 | 0.00 | 0.06 | 0.00 | 91 | 1020.8 |
| 20260830103540 | 48 | 229 | 0.0 | 0.0 | 0.00 | 0.06 | 0.00 | 92 | 1020.7 |
| 20260830102435 | 47 | 231 | 0.0 | 0.0 | 0.00 | 0.06 | 0.00 | 91 | 1020.6 |
| 20260830102429 | 47 | 231 | 0.0 | 0.0 | 0.00 | 0.06 | 0.00 | 92 | 1020.7 |
| 20260830101427 | 47 | 231 | 0.0 | 0.0 | 0.00 | 0.06 | 0.00 | 89 | 1020.6 |
| 20260830100926 | 47 | 231 | 0.0 | 0.0 | 0.00 | 0.06 | 0.00 | 88 | 1020.6 |
| 20260830100427 | 48 | 231 | 0.0 | 0.0 | 0.00 | 0.06 | 0.00 | 88 | 1020.7 |
| 20260830095926 | 48 | 231 | 0.0 | 0.0 | 0.00 | 0.06 | 0.00 | 89 | 1020.6 |
| 20260830095425 | 48 | 231 | 0.0 | 0.0 | 0.00 | 0.06 | 0.00 | 90 | 1020.7 |
| 20260830094925 | 48 | 231 | 0.0 | 0.0 | 0.00 | 0.06 | 0.00 | 89 | 1020.7 |
| 20260830094430 | 48 | 231 | 0.0 | 0.0 | 0.00 | 0.06 | 0.00 | 87 | 1020.6 |
| 20260830094426 | 48 | 231 | 0.0 | 0.0 | 0.00 | 0.06 | 0.00 | 88 | 1020.7 |
| 20260830094037 | 49 | 231 | 0.0 | 0.0 | 0.00 | 0.06 | 0.00 | 88 | 1020.5 |
| 20260830093424 | 49 | 231 | 0.0 | 0.0 | 0.00 | 0.06 | 0.00 | 86 | 1020.6 |
| 20260830093040 | 50 | 231 | 0.0 | 0.0 | 0.00 | 0.06 | 0.00 | 88 | 1020.5 |
| 20260830092923 | 49 | 231 | 0.0 | 0.0 | 0.00 | 0.06 | 0.00 | 88 | 1020.5 |
| 20260830091423 | 50 | 231 | 0.0 | 0.0 | 0.00 | 0.06 | 0.00 | 86 | 1020.5 |
| 20260830090923 | 50 | 231 | 0.0 | 0.0 | 0.00 | 0.06 | 0.00 | 84 | 1020.5 |
| 20260830090425 | 51 | 231 | 0.0 | 0.0 | 0.00 | 0.06 | 0.00 | 86 | 1020.4 |
| 20260830090421 | 51 | 231 | 0.0 | 0.0 | 0.00 | 0.06 | 0.00 | 85 | 1020.5 |
| 20260830085426 | 51 | 231 | 0.0 | 0.0 | 0.00 | 0.06 | 0.00 | 88 | 1020.4 |
| 20260830085420 | 51 | 231 | 0.0 | 0.0 | 0.00 | 0.06 | 0.00 | 87 | 1020.4 |
| 20260830084421 | 51 | 231 | 0.0 | 0.0 | 0.00 | 0.06 | 0.00 | 88 | 1020.5 |
| 20260830083921 | 51 | 231 | 0.0 | 0.0 | 0.00 | 0.06 | 0.00 | 89 | 1020.6 |
| 20260830083422 | 51 | 231 | 0.0 | 0.0 | 0.00 | 0.06 | 0.00 | 85 | 1020.7 |
| 20260830082921 | 51 | 231 | 0.0 | 0.0 | 0.00 | 0.06 | 0.00 | 85 | 1020.7 |
| 20260830082420 | 51 | 231 | 0.0 | 0.0 | 0.00 | 0.06 | 0.00 | 85 | 1020.8 |
| 20260830081921 | 51 | 231 | 0.0 | 0.0 | 0.00 | 0.06 | 0.00 | 84 | 1020.8 |
| 20260830081422 | 51 | 231 | 0.0 | 0.0 | 0.00 | 0.06 | 0.00 | 84 | 1020.7 |
| 20260830080920 | 52 | 231 | 0.0 | 0.0 | 0.00 | 0.06 | 0.00 | 84 | 1020.7 |
| 20260830080420 | 52 | 231 | 0.0 | 0.0 | 0.00 | 0.06 | 0.00 | 83 | 1020.7 |
| 20260830075922 | 52 | 231 | 0.0 | 0.0 | 0.00 | 0.06 | 0.00 | 82 | 1020.6 |
| 20260830075420 | 53 | 231 | 0.0 | 0.0 | 0.00 | 0.06 | 0.00 | 82 | 1020.6 |
| 20260830074921 | 53 | 231 | 0.0 | 0.0 | 0.00 | 0.06 | 0.00 | 82 | 1020.6 |
| 20260830074420 | 53 | 231 | 0.0 | 0.0 | 0.00 | 0.06 | 0.00 | 82 | 1020.6 |
| 20260830073920 | 53 | 231 | 0.0 | 0.0 | 0.00 | 0.06 | 0.00 | 82 | 1020.6 |
| 20260830073420 | 54 | 230 | 0.0 | 2.0 | 0.00 | 0.06 | 0.00 | 80 | 1020.6 |
| 20260830072922 | 54 | 230 | 0.0 | 2.0 | 0.00 | 0.06 | 0.00 | 81 | 1020.5 |
| 20260830072426 | 55 | 230 | 1.0 | 4.0 | 0.00 | 0.06 | 0.00 | 81 | 1020.5 |
| 20260830072421 | 55 | 230 | 1.0 | 3.0 | 0.00 | 0.06 | 0.00 | 80 | 1020.5 |
| 20260830071425 | 55 | 215 | 3.0 | 5.0 | 0.00 | 0.06 | 0.00 | 81 | 1020.4 |
| 20260830071421 | 55 | 238 | 2.0 | 5.0 | 0.00 | 0.06 | 0.00 | 81 | 1020.5 |
| 20260830070418 | 55 | 190 | 2.0 | 5.0 | 0.00 | 0.06 | 0.00 | 81 | 1020.4 |
| 20260830065919 | 55 | 213 | 2.0 | 5.0 | 0.00 | 0.06 | 0.06 | 80 | 1020.4 |
| 20260830065421 | 55 | 223 | 2.0 | 5.0 | 0.00 | 0.06 | 0.06 | 81 | 1020.3 |
| 20260830064918 | 55 | 212 | 2.0 | 5.0 | 0.00 | 0.06 | 0.06 | 81 | 1020.4 |
| 20260830064425 | 55 | 225 | 0.0 | 2.0 | 0.00 | 0.06 | 0.06 | 80 | 1020.4 |
| 20260830064420 | 55 | 234 | 1.0 | 5.0 | 0.00 | 0.06 | 0.06 | 81 | 1020.4 |
| 20260830063920 | 55 | 223 | 0.0 | 2.0 | 0.00 | 0.06 | 0.06 | 80 | 1020.4 |
| 20260830062919 | 55 | 267 | 0.0 | 4.0 | 0.00 | 0.06 | 0.06 | 80 | 1020.4 |
| 20260830062424 | 56 | 236 | 1.0 | 6.0 | 0.00 | 0.06 | 0.06 | 80 | 1020.4 |
| 20260830062420 | 55 | 244 | 0.0 | 6.0 | 0.00 | 0.06 | 0.06 | 80 | 1020.4 |
| 20260830061414 | 56 | 236 | 1.0 | 7.0 | 0.00 | 0.06 | 0.06 | 80 | 1020.4 |
| 20260830060915 | 56 | 222 | 1.0 | 7.0 | 0.00 | 0.06 | 0.06 | 80 | 1020.4 |
| 20260830060419 | 56 | 254 | 1.0 | 4.0 | 0.00 | 0.06 | 0.06 | 79 | 1020.4 |
| 20260830060415 | 56 | 240 | 0.0 | 4.0 | 0.00 | 0.06 | 0.06 | 79 | 1020.4 |
| 20260830055413 | 56 | 250 | 2.0 | 6.0 | 0.00 | 0.06 | 0.06 | 79 | 1020.4 |
| 20260830054913 | 56 | 213 | 2.0 | 6.0 | 0.00 | 0.06 | 0.06 | 79 | 1020.4 |
| 20260830054414 | 57 | 218 | 1.0 | 4.0 | 0.00 | 0.06 | 0.06 | 79 | 1020.4 |
| 20260830053913 | 57 | 232 | 1.0 | 6.0 | 0.00 | 0.06 | 0.06 | 78 | 1020.5 |
| 20260830053413 | 57 | 232 | 2.0 | 6.0 | 0.00 | 0.06 | 0.06 | 78 | 1020.5 |
| 20260830052913 | 57 | 211 | 2.0 | 5.0 | 0.00 | 0.06 | 0.06 | 78 | 1020.5 |
| 20260830052412 | 57 | 214 | 2.0 | 5.0 | 0.00 | 0.06 | 0.06 | 78 | 1020.5 |
| 20260830051914 | 57 | 215 | 2.0 | 7.0 | 0.00 | 0.06 | 0.06 | 78 | 1020.5 |
| 20260830051413 | 57 | 215 | 2.0 | 7.0 | 0.00 | 0.06 | 0.06 | 78 | 1020.5 |
| 20260830050911 | 57 | 255 | 1.0 | 7.0 | 0.00 | 0.06 | 0.06 | 78 | 1020.6 |
| 20260830050411 | 57 | 213 | 2.0 | 7.0 | 0.00 | 0.06 | 0.06 | 78 | 1020.6 |
| 20260830045910 | 57 | 236 | 2.0 | 7.0 | 0.00 | 0.06 | 0.06 | 78 | 1020.6 |
| 20260830045412 | 57 | 228 | 1.0 | 4.0 | 0.00 | 0.06 | 0.06 | 78 | 1020.5 |
| 20260830044913 | 58 | 258 | 1.0 | 5.0 | 0.00 | 0.06 | 0.06 | 77 | 1020.5 |
| 20260830044908 | 58 | 261 | 1.0 | 4.0 | 0.00 | 0.06 | 0.06 | 77 | 1020.6 |
| 20260830044408 | 58 | 247 | 2.0 | 6.0 | 0.00 | 0.06 | 0.06 | 77 | 1020.5 |
| 20260830043408 | 58 | 220 | 3.0 | 6.0 | 0.00 | 0.06 | 0.06 | 77 | 1020.5 |
| 20260830042905 | 58 | 221 | 3.0 | 6.0 | 0.00 | 0.06 | 0.06 | 77 | 1020.5 |
| 20260830042405 | 58 | 222 | 3.0 | 6.0 | 0.00 | 0.06 | 0.06 | 77 | 1020.5 |
| 20260830041905 | 58 | 237 | 2.0 | 6.0 | 0.00 | 0.06 | 0.06 | 77 | 1020.5 |
| 20260830041404 | 59 | 219 | 2.0 | 6.0 | 0.00 | 0.06 | 0.06 | 77 | 1020.4 |
| 20260830040903 | 59 | 257 | 1.0 | 4.0 | 0.00 | 0.06 | 0.06 | 76 | 1020.4 |
| 20260830040403 | 59 | 236 | 1.0 | 5.0 | 0.00 | 0.06 | 0.06 | 76 | 1020.3 |
| 20260830035903 | 59 | 215 | 2.0 | 6.0 | 0.00 | 0.06 | 0.06 | 76 | 1020.2 |
| 20260830035402 | 59 | 252 | 1.0 | 6.0 | 0.00 | 0.06 | 0.06 | 75 | 1020.2 |
| 20260830034903 | 59 | 250 | 1.0 | 3.0 | 0.00 | 0.06 | 0.06 | 74 | 1020.2 |
| 20260830034403 | 59 | 249 | 1.0 | 4.0 | 0.00 | 0.06 | 0.06 | 71 | 1020.1 |
| 20260830033909 | 60 | 227 | 0.0 | 4.0 | 0.00 | 0.06 | 0.06 | 67 | 1020.0 |
| 20260830033902 | 60 | 245 | 1.0 | 4.0 | 0.00 | 0.06 | 0.06 | 68 | 1020.1 |
| 20260830033403 | 60 | 265 | 1.0 | 4.0 | 0.00 | 0.06 | 0.06 | 68 | 1020.0 |
| 20260830032403 | 60 | 246 | 1.0 | 5.0 | 0.00 | 0.06 | 0.06 | 66 | 1019.9 |
| 20260830031904 | 60 | 245 | 1.0 | 5.0 | 0.00 | 0.06 | 0.06 | 65 | 1019.9 |
| 20260830031403 | 61 | 239 | 1.0 | 4.0 | 0.00 | 0.06 | 0.06 | 64 | 1019.8 |
| 20260830030903 | 61 | 237 | 1.0 | 4.0 | 0.00 | 0.06 | 0.06 | 63 | 1019.8 |
| 20260830030402 | 62 | 257 | 1.0 | 9.0 | 0.00 | 0.06 | 0.06 | 62 | 1019.7 |
| 20260830025902 | 62 | 293 | 1.0 | 9.0 | 0.00 | 0.06 | 0.06 | 61 | 1019.7 |
| 20260830025402 | 63 | 326 | 2.0 | 9.0 | 0.00 | 0.06 | 0.06 | 61 | 1019.7 |
| 20260830024902 | 63 | 277 | 3.0 | 9.0 | 0.00 | 0.06 | 0.06 | 61 | 1019.6 |
| 20260830024403 | 63 | 318 | 4.0 | 9.0 | 0.00 | 0.06 | 0.06 | 61 | 1019.6 |
| 20260830023902 | 63 | 305 | 5.0 | 11.0 | 0.00 | 0.06 | 0.06 | 61 | 1019.5 |
| 20260830023404 | 64 | 258 | 5.0 | 11.0 | 0.00 | 0.06 | 0.06 | 60 | 1019.5 |
| 20260830022902 | 64 | 294 | 4.0 | 10.0 | 0.00 | 0.06 | 0.06 | 60 | 1019.4 |
| 20260830022403 | 64 | 311 | 4.0 | 10.0 | 0.00 | 0.06 | 0.06 | 60 | 1019.4 |
| 20260830021903 | 65 | 302 | 5.0 | 10.0 | 0.00 | 0.06 | 0.06 | 59 | 1019.4 |
| 20260830021403 | 65 | 347 | 5.0 | 10.0 | 0.00 | 0.06 | 0.06 | 58 | 1019.3 |
| 20260830020902 | 65 | 306 | 4.0 | 10.0 | 0.00 | 0.06 | 0.06 | 57 | 1019.4 |
| 20260830020407 | 65 | 322 | 4.0 | 10.0 | 0.00 | 0.06 | 0.06 | 57 | 1019.4 |
| 20260830020401 | 66 | 348 | 5.0 | 10.0 | 0.00 | 0.06 | 0.06 | 54 | 1019.4 |
| 20260830015403 | 67 | 293 | 4.0 | 9.0 | 0.00 | 0.06 | 0.06 | 54 | 1019.3 |
| 20260830015359 | 67 | 333 | 3.0 | 9.0 | 0.00 | 0.06 | 0.06 | 52 | 1019.3 |
| 20260830014356 | 67 | 292 | 4.0 | 9.0 | 0.00 | 0.06 | 0.06 | 51 | 1019.3 |
| 20260830013856 | 67 | 301 | 4.0 | 12.0 | 0.00 | 0.06 | 0.06 | 49 | 1019.2 |